This is the latest recevied weather packets stored in our database for station/object SV9TNF-57. If no packets are shown the sender has not sent any weather packets the latest 10 day(s).
| Time | Temp. | Humidity | Pressure | Rain* | Wind** | Luminosity | Snow |
|---|---|---|---|---|---|---|---|
| 1788402540 | 25.56° C | 70% | 993.1 hPa | 0 mm | 0 m/s | - | - |
| 1788402241 | 25.56° C | 70% | 993.2 hPa | 0 mm | 0 m/s | - | - |
| 1788401941 | 25.56° C | 70% | 993.2 hPa | 0 mm | 0 m/s | - | - |
| 1788401640 | 25.56° C | 68% | 993.3 hPa | 0 mm | 0 m/s | - | - |
| 1788401340 | 26.11° C | 68% | 993.1 hPa | 0 mm | 0 m/s | - | - |
| 1788401040 | 26.11° C | 64% | 993.3 hPa | 0 mm | 0 m/s | - | - |
| 1788400740 | 26.11° C | 60% | 993.2 hPa | 0 mm | 0 m/s | - | - |
| 1788400440 | 26.11° C | 59% | 993.1 hPa | 0 mm | 0 m/s | - | - |
| 1788400140 | 25.56° C | 49% | 993.4 hPa | 0 mm | 0 m/s | - | - |
| 1788399840 | 25.56° C | 50% | 993.2 hPa | 0 mm | 0 m/s | - | - |
| 1788399539 | 25.56° C | 54% | 993.5 hPa | 0 mm | 0 m/s | - | - |
| 1788399239 | 25.56° C | 57% | 993.4 hPa | 0 mm | 0 m/s | - | - |
| 1788398940 | 25.56° C | 57% | 993.5 hPa | 0 mm | 0 m/s | - | - |
| 1788398639 | 26.11° C | 56% | 993.5 hPa | 0 mm | 0 m/s | - | - |
| 1788398340 | 26.11° C | 57% | 993.5 hPa | 0 mm | 0 m/s | - | - |
| 1788398039 | 26.11° C | 50% | 993.6 hPa | 0 mm | 0 m/s | - | - |
| 1788397739 | 26.67° C | 43% | 993.6 hPa | 0 mm | 0 m/s | - | - |
| 1788397439 | 26.11° C | 43% | 993.3 hPa | 0 mm | 0 m/s | - | - |
| 1788397139 | 26.11° C | 45% | 993.4 hPa | 0 mm | 0 m/s | - | - |
| 1788396838 | 26.67° C | 47% | 993.4 hPa | 0 mm | 0 m/s | - | - |
| 1788396538 | 26.67° C | 44% | 993.4 hPa | 0 mm | 0 m/s | - | - |
| 1788396238 | 26.67° C | 44% | 993.5 hPa | 0 mm | 0 m/s | - | - |
| 1788395939 | 26.67° C | 41% | 993.4 hPa | 0 mm | 0 m/s | - | - |
| 1788395638 | 26.67° C | 47% | 993.4 hPa | 0 mm | 0 m/s | - | - |
| 1788395338 | 26.67° C | 50% | 993.3 hPa | 0 mm | 0 m/s | - | - |
* Rain latest hour (hover to see other rain measurements)
** Current wind speed in m/s (hover to see current wind gust speed)